www.pogodaiklimat.ru

Погода и климат >> Архив погоды >> Франция >> Мененгейм


ПОГОДА в Мененгейме

  • Прогноз погоды в Мененгейме
  • Монитор погоды в Мененгейме

АРХИВ ПОГОДЫ в Мененгейме

Время (UTC), дата Ветер
(напр.,м/с)
 
Видим.   Явления Облачность Т
(С)
Тd
(С)
f
(%)
Тe
(С)
Тes
(С)
Комфортность P
(гПа)
Po
(гПа)
Тmin
(С)
Tmax
(С)
R
(мм)
R24
(мм)
S
(см)
10 12.06 ЮЗ 2 20 км н/о +16.7 +11.0 69 +17 +17 1012.2 987.8
11 12.06 ЮЗ 2 19 км н/о +17.9 +9.8 59 +18 +18 1012.1 987.8
12 12.06 Ю 3 20 км н/о +18.9 +9.9 56 +20 +20 1012.3 988.0
13 12.06 З 2 20 км н/о +20.2 +9.4 50 +22 +22 комфорт 1011.9 987.7
14 12.06 ЮЗ 2 20 км н/о +20.6 +8.6 46 +23 +23 комфорт 1011.7 987.6
15 12.06 Ю 2 20 км н/о +21.3 +8.2 43 +22 +22 комфорт 1011.5 987.4
16 12.06 ЮВ 2 20 км н/о +20.0 +9.0 49 +22 +22 комфорт 1011.4 987.2
17 12.06 Ю 2 20 км н/о +21.1 +9.0 46 +22 +22 комфорт 1011.4 987.3
18 12.06 Ю 1 20 км н/о +20.5 +9.4 49 +23 +23 комфорт 1011.8 987.7 +12.4 +22.0
19 12.06 ЮЗ 1 20 км н/о +19.2 +10.7 58 +21 +21 комфорт 1012.2 988.0
20 12.06 Ю 1 20 км н/о +17.7 +10.8 64 +19 +19 1012.8 988.4
21 12.06 ЮЗ 1 20 км н/о +16.0 +12.0 77 +17 +17 1013.6 989.1
22 12.06 Ю 1 20 км н/о +15.1 +10.9 76 +16 +16 1013.9 989.3
23 12.06 Ю 1 20 км н/о +15.2 +10.8 75 +16 +16 1014.2 989.6
00 13.06 Ю 1 20 км слаб. дождь н/о +14.5 +11.8 84 +15 +15 1014.6 989.9 0.0
01 13.06 З 1 20 км н/о +13.1 +11.2 88 +14 +14 1014.9 990.1 0.0
02 13.06 Ю 1 20 км н/о +12.2 +10.6 90 +12 +12 1015.0 990.1
03 13.06 Ю 1 20 км н/о +11.9 +10.1 89 +13 +13 1015.4 990.5 0.0
04 13.06 ЮВ 1 20 км н/о +11.1 +9.4 89 +12 +12 1015.5 990.5
05 13.06 Ю 1 20 км н/о +13.9 +10.5 80 +14 +14 1015.4 990.6
06 13.06 Ю 2 20 км н/о +16.4 +9.3 63 +17 +17 1015.3 990.8 +11.0 +20.6 0.0
07 13.06 Ю 2 20 км н/о +17.5 +8.9 57 +18 +18 1015.3 990.8
08 13.06 ЮЗ 2 20 км н/о +19.0 +9.2 53 +20 +20 1015.2 990.9
09 13.06 Ю 2 20 км н/о +19.9 +9.7 52 +22 +22 комфорт 1015.3 991.0
10 13.06 Ю 2 20 км н/о +21.5 +10.0 48 +23 +23 комфорт 1014.9 990.8
11 13.06 ЮЗ 2 20 км н/о +22.1 +8.2 41 +23 +23 комфорт 1014.7 990.6
12 13.06 ЮЗ 2 20 км н/о +23.2 +8.5 39 +24 +24 комфорт 1014.2 990.2
13 13.06 Ю 2 20 км н/о +24.0 +7.6 35 +24 +24 комфорт 1013.7 989.8
14 13.06 ЮЗ 3 20 км н/о +24.2 +8.2 36 +25 +25 комфорт 1013.6 989.7
15 13.06 ЮЗ 2 20 км н/о +24.9 +8.4 35 +25 +25 комфорт 1013.4 989.6
16 13.06 Ю 1 20 км н/о +25.2 +5.9 29 +25 +25 комфорт 1013.2 989.4
17 13.06 Ю 1 20 км н/о +25.2 +5.9 29 +25 +25 комфорт 1012.9 989.1
18 13.06 ЮВ 1 20 км н/о +24.2 +6.9 33 +24 +24 комфорт 1013.2 989.3 +16.0 +25.5
19 13.06 ЮВ 1 20 км н/о +21.4 +10.2 49 +23 +23 комфорт 1013.5 989.4
20 13.06 штиль 0 18 км н/о +16.5 +9.4 63 +16 +16 1014.4 989.9
21 13.06 штиль 0 20 км н/о +14.4 +10.6 78 +14 +14 1014.9 990.2
22 13.06 З 1 20 км н/о +12.8 +10.0 83 +14 +14 1015.5 990.6
23 13.06 штиль 0 20 км н/о +11.8 +10.0 89 +11 +11 1015.5 990.6
00 14.06 штиль 0 20 км н/о +11.0 +9.1 88 +10 +10 1015.5 990.5
01 14.06 Ю 1 20 км н/о +10.2 +8.6 90 +11 +11 1015.3 990.2
02 14.06 штиль 0 20 км н/о +9.6 +8.5 93 +9 +9 1015.2 990.1
03 14.06 штиль 0 20 км н/о +9.8 +8.6 92 +9 +9 1014.6 989.5
04 14.06 ЮЗ 1 20 км н/о +11.0 +9.6 91 +12 +12 1014.9 989.9
05 14.06 З 1 20 км н/о +14.3 +11.6 84 +15 +15 1014.5 989.8
06 14.06 ЮЗ 2 20 км н/о +16.2 +11.6 74 +17 +17 1015.8 991.2 +9.3 +24.2
07 14.06 ЮЗ 1 20 км н/о +18.5 +11.3 63 +21 +21 комфорт 1015.3 990.9
08 14.06 Ю 1 20 км н/о +18.7 +12.0 65 +20 +20 1016.0 991.6
09 14.06 З 1 19 км слаб. дождь н/о +17.8 +14.5 81 +19 +19 1016.9 992.5 0.2
10 14.06 СВ 1 20 км слаб. дождь н/о +19.0 +14.7 76 +22 +22 комфорт 1017.2 992.9 0.2
11 14.06 ЮЗ 1 20 км н/о +20.3 +14.9 71 +24 +24 комфорт 1017.0 992.8 0.0
12 14.06 ЮЗ 1 20 км н/о +19.8 +14.4 71 +23 +23 комфорт 1016.7 992.4 0.2
13 14.06 СЗ 1 20 км слаб. дождь н/о +19.2 +14.9 76 +22 +22 комфорт 1015.3 991.0 0.0
14 14.06 СЗ 1 20 км н/о +21.4 +15.5 69 +25 +25 комфорт 1014.6 990.5 0.0
15 14.06 С 1 20 км н/о +21.5 +15.3 68 +25 +25 комфорт 1014.0 990.0 0.0
16 14.06 С 1 20 км н/о +21.9 +15.3 66 +25 +25 комфорт 1012.9 988.9
17 14.06 С 2 20 км н/о +21.8 +15.2 66 +25 +25 комфорт 1012.0 988.0
18 14.06 С 2 20 км н/о +20.8 +14.9 69 +25 +25 комфорт 1011.1 987.1 +16.2 +22.4
19 14.06 С 2 20 км н/о +19.7 +14.7 73 +22 +22 комфорт 1010.5 986.4
20 14.06 СВ 1 20 км н/о +18.7 +15.2 80 +21 +21 комфорт 1010.7 986.5
21 14.06 С 2 20 км н/о +18.6 +15.1 80 +20 +20 1010.3 986.1
22 14.06 С 2 20 км н/о +18.0 +14.3 79 +19 +19 1009.8 985.6
23 14.06 СВ 1 20 км н/о +17.3 +13.6 79 +18 +18 1009.3 985.0
00 15.06 В 1 20 км н/о +16.5 +13.4 82 +18 +18 1009.7 985.3
01 15.06 ЮЗ 2 20 км н/о +16.7 +14.7 88 +17 +17 1010.7 986.3
02 15.06 ЮЗ 3 20 км н/о +17.7 +14.6 82 +18 +18 1011.9 987.6
03 15.06 Ю 2 20 км н/о +17.3 +14.2 82 +18 +18 1012.5 988.1
04 15.06 Ю 2 20 км н/о +16.7 +14.3 86 +17 +17 1013.5 989.1 0.0
05 15.06 Ю 1 20 км н/о +16.8 +14.4 86 +18 +18 1013.8 989.4
06 15.06 Ю 3 20 км н/о +18.4 +14.7 79 +19 +19 1014.7 990.4 +15.5 +20.8 0.0
07 15.06 ЮЗ 3 20 км н/о +18.8 +14.1 74 +20 +20 1015.1 990.8
08 15.06 Ю 3 20 км н/о +20.1 +14.0 68 +23 +23 комфорт 1016.0 991.8
09 15.06 ЮЗ 3 20 км н/о +19.9 +14.0 69 +22 +22 комфорт 1016.7 992.4
10 15.06 ЮЗ 2 20 км н/о +20.6 +13.5 64 +24 +24 комфорт 1016.5 992.3
11 15.06 СЗ 1 20 км н/о +23.0 +13.2 54 +26 +26 жарко 1016.4 992.4
12 15.06 Ю 1 10 км н/о +23.7 +13.6 53 +26 +26 жарко 1016.2 992.3
13 15.06 В 1 20 км н/о +23.7 +13.3 52 +26 +26 жарко 1015.7 991.8
14 15.06 ЮВ 1 20 км н/о +23.1 +13.8 56 +27 +27 душно 1015.9 991.9
15 15.06 В 2 20 км н/о +24.0 +14.4 55 +27 +27 жарко 1015.4 991.5
16 15.06 СВ 1 20 км н/о +23.6 +13.5 53 +26 +26 жарко 1015.1 991.2
17 15.06 В 1 20 км н/о +23.3 +13.2 53 +26 +26 жарко 1014.8 990.9
18 15.06 Ю 1 20 км н/о +22.1 +14.5 62 +25 +25 комфорт 1015.7 991.7 +18.4 +24.9
19 15.06 Ю 3 20 км слаб. дождь н/о +18.4 +15.6 84 +19 +19 1016.6 992.2 0.4
20 15.06 З 1 15 км слаб. дождь н/о +16.1 +14.6 91 +17 +17 1018.1 993.5 1
21 15.06 ЮВ 1 15 км слаб. дождь н/о +15.7 +14.7 94 +16 +16 1019.2 994.5 6
22 15.06 ЮВ 1 5000 м дождь н/о +15.6 +14.8 95 +17 +17 1020.1 995.4 5
23 15.06 Ю 1 5000 м слаб. дождь н/о +15.5 +14.7 95 +17 +17 1020.4 995.7 1
00 16.06 Ю 1 3200 м дождь н/о +15.4 +14.8 96 +17 +17 1020.6 995.9 10
01 16.06 Ю 1 5000 м слаб. дождь н/о +15.2 +14.6 96 +16 +16 1020.7 996.0 1
02 16.06 ЮВ 1 5000 м слаб. дождь н/о +15.1 +14.5 96 +16 +16 1020.5 995.8 0.7
03 16.06 ЮВ 1 7000 м н/о +15.1 +14.5 96 +16 +16 1021.1 996.3 2
04 16.06 штиль 0 10 км н/о +14.9 +14.3 96 +15 +15 1021.3 996.5 0.4
05 16.06 ЮВ 1 16 км н/о +15.2 +14.6 96 +16 +16 1021.8 997.0
06 16.06 Ю 1 16 км н/о +15.5 +14.7 95 +17 +17 1022.1 997.4 +14.8 +22.0 18
07 16.06 Ю 1 20 км н/о +16.3 +14.5 89 +17 +17 1022.4 997.7
08 16.06 Ю 1 20 км н/о +17.0 +14.6 86 +18 +18 1022.6 998.0
09 16.06 Ю 1 20 км н/о +17.9 +12.6 71 +19 +19 1022.7 998.1
10 16.06 ЮВ 1 20 км н/о +20.1 +13.8 67 +23 +23 комфорт 1022.4 998.0
11 16.06 ЮЗ 1 20 км н/о +20.1 +12.1 60 +23 +23 комфорт 1022.3 997.9
12 16.06 СЗ 1 20 км н/о +21.4 +12.5 57 +24 +24 комфорт 1021.9 997.6
13 16.06 В 1 20 км н/о +20.8 +12.7 60 +24 +24 комфорт 1021.6 997.3
14 16.06 СВ 1 20 км н/о +22.9 +12.5 52 +26 +26 жарко 1021.2 997.1
15 16.06 З 1 20 км н/о +23.4 +12.7 51 +26 +26 жарко 1020.7 996.6
16 16.06 СВ 1 20 км н/о +23.3 +12.6 51 +26 +26 жарко 1020.4 996.3
17 16.06 СЗ 1 20 км н/о +23.2 +13.4 54 +26 +26 жарко 1020.4 996.3
18 16.06 С 1 20 км н/о +22.7 +12.6 53 +25 +25 комфорт 1020.4 996.3 +15.4 +23.9
19 16.06 С 1 20 км н/о +20.9 +13.1 61 +25 +25 комфорт 1020.5 996.2
20 16.06 С 1 20 км н/о +18.2 +13.9 76 +20 +20 1020.9 996.4
21 16.06 С 1 20 км н/о +16.8 +13.7 82 +18 +18 1021.0 996.4
22 16.06 С 1 20 км н/о +16.0 +13.3 84 +17 +17 1021.2 996.5
23 16.06 СВ 1 20 км н/о +15.7 +13.2 85 +17 +17 1020.9 996.2
00 17.06 В 1 20 км н/о +15.2 +12.9 86 +16 +16 1020.8 996.0
01 17.06 СВ 1 20 км н/о +14.2 +12.2 88 +15 +15 1020.7 995.9
02 17.06 СВ 1 20 км н/о +13.8 +11.7 87 +14 +14 1020.7 995.8
03 17.06 С 1 20 км н/о +13.3 +11.5 89 +13 +13 1020.4 995.5
04 17.06 СВ 1 20 км н/о +12.9 +11.0 88 +14 +14 1020.6 995.6
05 17.06 СВ 1 20 км н/о +15.7 +12.1 79 +16 +16 1020.2 995.5
06 17.06 СВ 2 20 км н/о +16.5 +12.3 76 +17 +17 1020.3 995.7 +12.9 +22.7
07 17.06 С 2 20 км н/о +18.1 +13.6 75 +19 +19 1020.0 995.5
08 17.06 С 2 20 км н/о +19.7 +14.1 70 +22 +22 комфорт 1019.2 994.9
09 17.06 С 2 20 км н/о +21.7 +14.1 62 +25 +25 комфорт 1018.8 994.6
10 17.06 С 2 20 км н/о +23.1 +14.1 57 +27 +27 душно 1018.1 994.1
11 17.06 С 2 20 км н/о +24.5 +14.9 55 +27 +27 жарко 1017.4 993.5
12 17.06 С 2 20 км н/о +25.0 +14.5 52 +28 +28 жарко 1016.9 993.1
13 17.06 С 2 20 км н/о +25.8 +14.6 50 +28 +28 жарко 1016.5 992.7
14 17.06 С 2 20 км н/о +26.3 +14.1 47 +29 +29 жарко 1015.9 992.2
15 17.06 С 2 20 км н/о +26.7 +13.8 45 +29 +29 жарко 1015.6 991.9
16 17.06 С 1 20 км н/о +27.0 +14.7 47 +30 +30 душно 1015.2 991.6
17 17.06 С 2 20 км н/о +26.6 +13.7 45 +29 +29 жарко 1015.1 991.4
18 17.06 С 2 20 км н/о +25.6 +14.1 49 +28 +28 жарко 1015.0 991.2 +16.5 +27.1
19 17.06 СВ 1 20 км н/о +23.8 +14.5 56 +26 +26 жарко 1015.1 991.2
20 17.06 СЗ 1 19 км н/о +19.9 +14.9 73 +24 +24 комфорт 1015.7 991.5
21 17.06 штиль 0 20 км н/о +17.8 +15.2 85 +18 +18 1016.1 991.7
22 17.06 штиль 0 20 км н/о +16.7 +14.7 88 +17 +17 1016.1 991.6
23 17.06 штиль 0 19 км н/о +15.6 +14.0 90 +15 +15 1016.3 991.7
00 18.06 Ю 1 19 км н/о +14.8 +13.3 91 +16 +16 1016.2 991.5
01 18.06 штиль 0 14 км н/о +14.2 +13.2 94 +14 +14 1016.0 991.3
02 18.06 Ю 1 10 км н/о +13.4 +12.5 94 +14 +14 1016.0 991.2
03 18.06 штиль 0 11 км н/о +13.0 +12.2 95 +12 +12 1016.0 991.2
04 18.06 ЮВ 1 12 км н/о +12.8 +12.2 96 +14 +14 1015.7 990.9
05 18.06 ЮЗ 1 18 км н/о +15.5 +14.4 93 +17 +17 1015.9 991.3
06 18.06 ЮЗ 1 20 км н/о +18.8 +15.3 80 +21 +21 комфорт 1015.7 991.4 +12.7 +25.6
07 18.06 ЮЗ 1 20 км н/о +21.8 +16.1 70 +26 +26 душно 1015.3 991.3
08 18.06 З 1 20 км н/о +23.0 +16.8 68 +28 +28 душно 1014.9 991.0
09 18.06 В 1 20 км н/о +25.1 +16.8 60 +29 +29 душно 1014.4 990.6
10 18.06 Ю 1 20 км н/о +26.6 +17.7 58 +31 +31 душно 1013.8 990.2
11 18.06 ЮЗ 2 20 км н/о +28.1 +17.0 51 +32 +32 душно 1013.4 989.9
12 18.06 Ю 2 18 км н/о +29.2 +13.0 37 +31 +31 жарко 1012.7 989.3
13 18.06 ЮЗ 2 20 км н/о +29.7 +12.6 35 +31 +31 жарко 1012.4 989.0
14 18.06 ЮЗ 2 20 км н/о +29.5 +12.0 34 +30 +30 жарко 1012.1 988.7
15 18.06 ЮЗ 1 20 км н/о +29.7 +9.8 29 +30 +30 жарко 1012.1 988.7
16 18.06 ЮЗ 1 20 км н/о +29.8 +11.8 33 +30 +30 жарко 1011.5 988.1
17 18.06 З 1 19 км н/о +30.5 +9.9 28 +30 +30 жарко 1011.3 988.0
18 18.06 штиль 0 20 км н/о +28.8 +14.2 41 +31 +31 жарко 1011.5 988.1 +18.9 +31.1
19 18.06 ЮВ 1 20 км н/о +26.2 +14.3 48 +29 +29 жарко 1011.6 988.0
20 18.06 Ю 1 20 км н/о +21.8 +16.1 70 +26 +26 душно 1012.2 988.2
21 18.06 Ю 1 20 км н/о +21.3 +15.6 70 +25 +25 комфорт 1012.2 988.2
22 18.06 Ю 1 20 км н/о +20.8 +14.4 67 +25 +25 комфорт 1012.3 988.2
23 18.06 З 1 20 км н/о +18.9 +14.2 74 +22 +22 комфорт 1012.1 987.9
00 19.06 штиль 0 20 км н/о +18.2 +13.9 76 +18 +18 1011.8 987.5
01 19.06 ЮЗ 1 20 км н/о +17.9 +14.2 79 +19 +19 1011.4 987.1
02 19.06 ЮЗ 1 20 км н/о +17.5 +13.8 79 +19 +19 1011.0 986.7
03 19.06 ЮЗ 1 20 км н/о +17.0 +13.7 81 +18 +18 1011.3 986.9
05 19.06 ЮЗ 1 20 км н/о +17.7 +14.6 82 +19 +19 1011.3 987.0
06 19.06 ЮЗ 1 20 км н/о +20.3 +15.5 74 +24 +24 комфорт 1011.1 987.0 +15.2 +28.7
07 19.06 Ю 2 20 км н/о +23.2 +15.5 62 +27 +27 душно 1010.9 987.1
08 19.06 Ю 2 20 км н/о +26.0 +14.8 50 +29 +29 душно 1010.6 987.0

 

Местоположение метеостанции Мененгейм (Франция): широта 47.92 долгота 7.40 высота над уровнем моря 220 м.

В архиве по умолчанию представлена погода в Мененгейме за последнюю неделю. Архивные данные за месяц целиком и за предыдущие месяцы, начиная с января 2011 года, Вы можете получить, выбрав интересующий диапазон дат из раскрывающегося списка и нажав кнопку "Ввод!".


*Определитесь, кто Вы:
робот инопланетянин человек

Внимание! Время в таблицах - всемирное. Для получения местного времени необходимо прибавить поправку, которая равна 1 ч.

Смотрите также архив погоды в соседних городах и на ближайших метеорологических станциях:

Погода во Фрайбурге (Германия) (35 км)
Погода в Евроаэропорту (Франция) (37 км)
Погода в Базель Биннингене (Швейцария) (43 км)
Погода в Фельдберге (Германия) (45 км)
Погода в Рейнфельдене (Швейцария) (51 км)
Погода в Мёлине (Швейцария) (52 км)
Погода в Доране (Франция) (56 км)
Погода в Ларе (Германия) (59 км)
Погода в Делемоне (Швейцария) (61 км)
Погода в Веве (Швейцария) (61 км)

Пояснения к столбцам:

Ветер - указаны скорость ветра в м/с - средняя за 10 мин, порывы в срок и между сроками (в фигурных скобках) и направление, откуда дует ветер: С - северный, СВ - северо-восточный, В - восточный, ЮВ - юго-восточный, Ю - южный, ЮЗ - юго-западный, З - западный, СЗ - северо-западный.
Видимость - горизонтальная дальность видимости в метрах или километрах. При видимости от 1 до 10 км при отсутствии осадков обычно наблюдается дымка, при ухудшении видимости до 1 км и менее - туман. В сухую погоду видимость может ухудшаться дымом, пылью или мглою.
Явления - указаны атмосферные явления, наблюдавшиеся в срок или в последний час перед сроком; фигурными скобками обозначены явления, наблюдавшиеся между сроками (за 1-3 часа до срока); квадратными скобками обозначены град или гололедные отложения с указанием их диаметра в мм.
Облачность - указаны через наклонную черту общая и нижняя облачность в баллах и высота нижней границы облаков в метрах; квадратными скобками обозначены формы облаков: Ci - перистые, Cs - перисто-слоистые, Cc - перисто-кучевые, Ac - высококучевые, As - высокослоистые, Sc - слоисто-кучевые, Ns - слоисто-дождевые, Cu - кучевые, Cb - кучево-дождевые. Подробнее классификацию облаков см. в Атласе облаков (PDF).
T - Температура воздуха - температура, измеренная на высоте 2 м над землей.
Td - Температура точки росы - температура, при понижении до которой содержащийся в воздухе водяной пар достигнет насыщения.
f - Относительная влажность воздуха - влажноcть воздуха, измеренная на высоте 2 м над землей.
Te - Эффективная температура - температура, которую ощущает одетый по сезону человек в тени. Характеристика душности погоды. При расчете учитывается влияние влажности воздуха и скорости ветра на теплоощущения человека.
Tes - Эффективная температура на солнце - температура, которую ощущает человек, с поправкой на солнечный нагрев. Характеристика знойности погоды. Зависит от высоты солнца над горизонтом, облачности и скорости ветра. Ночью, в пасмурную погоду, а также при ветре 12 м/с и более поправка равна нулю.
P - Атмосферное давление - приведенное к уровню моря атмосферное давление.
Po - Атмосферное давление - измеренное на уровне метеостанции атмосферное давление.
Tmin - Минимальная температура - минимум температуры воздуха на высоте 2 м над землей.
Tmax - Максимальная температура - максимум температуры воздуха на высоте 2 м над землей.
R - Количество осадков - Количество выпавших осадков за период времени, мм. При наведении курсора мыши на число - период времени, за который выпало указанное количество осадков.
R24 - Количество осадков - Количество выпавших осадков за 24 часа, мм.
S - Снежный покров - Высота снежного покрова, см. При наведении курсора мыши на число - состояние снежного покрова и степень покрытия местности в баллах.